Location: Dead Woman Crossing
(43.5369°N, 106.3228°W)
Time: 13:37:17
(UTC+00:00)

DX 1 - Visible Passes

Search period start: 25 June 2022 00:00
Search period end: 05 July 2022 00:00
Orbit: 618 x 628 km, 98.4° (Epoch: 25 June)

Date Brightness Start Highest point End Pass type
(mag) Time Alt. Az. Time Alt. Az. Time Alt. Az.
25 Jun ? 04:36:03 10° N 04:40:23 63° WNW 04:44:42 10° SSW visible
26 Jun ? 04:54:29 10° N 04:58:36 40° WNW 05:02:40 10° SW visible
27 Jun ? 03:36:52 10° NE 03:40:44 30° E 03:44:33 10° SSE visible
27 Jun ? 05:13:03 10° N 05:16:45 27° WNW 05:20:25 10° SW visible
28 Jun ? 03:54:51 10° NNE 03:59:05 46° E 04:03:16 10° S visible
28 Jun ? 05:31:49 10° NNW 05:34:51 19° WNW 05:37:52 10° WSW visible
29 Jun ? 04:13:00 10° NNE 04:17:23 73° ESE 04:21:44 10° S visible
29 Jun ? 05:51:00 10° NW 05:52:55 13° WNW 05:54:49 10° W visible
30 Jun ? 04:31:16 10° N 04:35:39 73° WNW 04:39:59 10° SSW visible
01 Jul ? 04:49:39 10° N 04:53:51 46° WNW 04:58:01 10° SW visible
02 Jul ? 03:32:14 10° NE 03:35:55 26° E 03:39:33 10° SSE visible
02 Jul ? 05:08:10 10° N 05:12:01 31° WNW 05:15:51 10° SW visible
03 Jul ? 03:50:09 10° NNE 03:54:17 39° E 03:58:22 10° SSE visible
03 Jul ? 05:26:51 10° NNW 05:30:08 21° WNW 05:33:24 10° WSW visible
04 Jul ? 04:08:14 10° NNE 04:12:36 62° ESE 04:16:54 10° S visible
04 Jul ? 05:45:50 10° NNW 05:48:12 14° WNW 05:50:34 10° W visible
